STARLINK-34084, 63970

Orbit data source: Space-Track

STARLINK-34084, 63970 is a payload satellite owned by SpaceX/Seattle (US) in LEO that was launched on Tue, 13 May 2025 UTC via an FALCON 9 launch vehicle from the Air Force Eastern Test Range (AFETR). Payload-class satellites include a variety of spacecraft equipped with specific instruments for various scientific and technological missions. These include communications satellites like Starlink; space stations such as the ISS; scientific satellites like the Hubble; Earth observation satellites from companies like Planet Labs, Umbra, and HawkEye 360; GPS; miniature CubeSats for education and research; and military/defense satellites.

Loading next visibility...
Identifier
63970, 2025-099U
Orbit
LEO
Country
Flag of USUS
Related business
Manufacturer
SpaceX/Seattle
Mission
Operational Commercial Communications
Bus & Motor
STARLINK V2MO, Unknown motor
Mass
575 kg wet, ~530 kg dry
Launch date (UTC)
2025-05-13 (7 months ago)
Launch vehicle
FALCON 9
Launch site
Air Force Eastern Test Range (AFETR)
Object type
Payload
Rocket body
Debris
Shape & HBR
Box + 2 Pan, 17.7 m
Radar Cross Section
36.964 m², Large (>1 m²)

Expand to show TLE details & history
Last TLE update: 10 hours ago

TLE from 10 hours ago
0 STARLINK-34084
1 63970U 25099U   25346.93772612  .00050025  00000-0  18144-2 0  9999
2 63970  43.0027 305.7211 0001528 270.1647  89.9030 15.27592068 34073
Epoch: 2025-12-12T22:30Z
TLE epoch observation values (Epoch: 2025-12-12T22:30:19.536Z)
Latitude
-0°
Longitude
-113.73248°
Altitude
482.787 km
Speed
7.626 km/s
True Right ascension
20h 22m 53s
True Declination
0° 00' 00"
Sunlit
Object was in daylight at epoch
Visualization orbit readout
Latitude
Unknown
Longitude
Unknown
Altitude
Unknown
Speed
Unknown
Apparent Right ascension
Unknown
Apparent Declination
Unknown
Sunlit
N/A
Visualization observer readout
Local Sidereal Time
07:27:31
Azimuth
Unknown
Elevation
Unknown
Doppler factor
Unknown
Orbital elements
Apogee altitude
486.006 km
Perigee altitude
483.909 km
Semi-major axis
6,863.095 km
Eccentricity
0.00015
Inclination
43.0027°
RAAN
305.7211°
Arg. of periapsis
270.1647°
True anomaly
89.92051°
Mean anomaly
89.903°
Eccentric anomaly
89.91175°
Mean motion
3.81736 °/min
Orbital period
94.31 mins
BSTAR
0.0018144
Loading maneuver chart data...
Computing Atmospheric mass density...
Loading historical data...
Loading historical data...
Loading historical data...
Loading historical data...
Loading historical data...
Loading historical data...
Loading historical data...

Documentation

Showing up to 5 results
|